Terminal Aerodrome Forecast
Issued by NWS King Salmon, AK

Home | Current Version | Previous Version | Text Only | Print | Product List | Glossary On
Versions: 1 2 3 4 5 6 7 8 9 10 11 12 13 14 15 16 17 18 19 20
000
FTAK31 PANC 191726
TAFAKN
TAF
PAKN 191726Z 1918/2018 17006KT P6SM SCT004
     FM200700 VRB04KT P6SM -RASN SCT015 OVC025
     FM201500 32004KT P6SM SCT030=

USA.gov is the U.S. government's official web portal to all federal, state and local government web resources and services.